Terug naar catalogus

CZ-6A DEB

ActiefPO
NORAD 60765·DEBRIS·🇨🇳 China

Gelanceerd Aug 6, 2024 vanaf Taiyuan Satellite Launch Center

Loading…

Volgende Passages (komende 24 uur)

TLE

VersSource: Space-Track

Epoch: Sep 14, 2026, 09:18 UTC

1 60765U 24140EQ  26257.38783844  .00001603  00000-0  36292-3 0  9997
2 60765  88.7679 238.1545 0098654 267.8043  91.1866 14.52724040110610

Volg CZ-6A DEB in realtime met AllMySat

Download on the App Store